Theta_e
301 302 303 304 302 303 305 304 303 302 302 302 300 300 300 299 299 299 293 296 294 295 294 291 295 295 295 294 294 296 299 300 300 303 296 293 291 296 295 299 305 306 307 307 306 307 307 305 308 315 312 304 304 305
300 301 303 302 301 301 302 301 301 301 300 300 300 299 298 298 299 297 295 294 295 292 293 292 293 294 294 294 296 294 294 295 299 302 291 289 294 302 300 304 304 307 308 310 308 307 303 301 298 296 296 300 302 302
299 299 302 302 300 300 300 300 300 300 299 298 298 298 298 297 298 298 295 295 294 289 292 291 292 293 295 294 295 299 297 299 300 299 297 300 304 297 298 304 303 305 291 305 307 300 294 293 292 290 291 296 296 297
298 297 297 299 300 301 300 299 300 299 298 298 298 297 297 297 297 297 294 294 294 287 290 294 293 293 293 294 295 296 297 297 298 300 301 303 306 302 302 302 301 288 286 289 301 294 290 294 287 286 289 290 290 292
297 297 296 297 297 297 298 298 298 298 298 297 296 296 296 296 296 296 294 293 293 292 292 294 291 292 292 293 294 294 294 296 296 299 300 302 302 301 298 291 281 278 276 283 292 280 279 282 284 283 285 287 287 289
296 296 296 297 296 296 297 297 297 296 296 296 296 295 295 295 296 296 291 294 293 293 289 290 290 290 289 292 294 295 295 295 295 298 300 299 286 292 298 281 274 272 271 271 273 273 273 275 278 281 281 284 283 284
295 295 295 295 295 296 295 296 296 296 296 295 293 294 295 294 294 290 289 291 293 293 287 292 289 285 288 291 293 293 294 294 295 297 296 288 279 281 279 282 271 269 268 269 271 270 278 277 277 276 278 281 280 279
293 293 293 294 294 293 294 295 295 295 294 293 292 293 293 293 292 289 289 290 292 287 281 286 290 284 286 284 286 292 294 295 293 290 283 280 273 273 270 269 268 267 266 270 267 268 271 273 273 273 273 276 278 277
292 292 292 292 292 291 290 290 291 291 291 290 291 292 292 289 285 288 289 289 290 287 280 280 288 284 283 284 287 285 293 293 288 284 278 277 270 267 267 266 265 265 265 265 265 267 268 269 270 271 270 270 274 274
290 290 290 290 289 288 288 288 288 289 289 289 291 289 283 284 286 288 288 282 278 271 273 279 278 287 287 284 279 283 285 289 287 280 275 271 269 268 266 265 264 264 264 263 264 265 265 266 267 268 269 269 269 272
288 288 287 287 288 288 288 288 287 288 288 288 279 282 284 284 287 276 276 277 271 274 269 271 273 278 282 284 281 288 283 285 288 281 279 273 272 268 265 264 263 262 262 263 263 264 265 265 265 266 266 267 267 268
287 286 286 286 287 287 287 288 288 288 285 284 283 281 281 273 274 278 265 268 271 271 266 267 270 275 276 284 282 283 283 282 284 276 277 275 270 265 263 262 262 262 261 262 262 263 263 264 263 264 265 265 265 266
286 286 286 285 286 286 287 287 286 285 285 284 278 272 276 269 275 272 273 270 269 267 266 266 269 270 272 282 279 278 280 279 274 273 272 270 266 264 262 262 261 261 261 261 262 262 263 263 263 263 263 264 265 265
285 285 284 284 284 284 285 287 286 286 284 269 272 273 269 269 265 262 262 261 264 266 264 267 266 267 268 276 277 278 276 274 271 273 273 264 262 262 261 261 261 261 260 261 261 262 262 263 263 263 263 263 264 264
282 284 284 283 283 283 283 284 284 284 273 266 268 267 266 263 261 261 259 258 262 261 265 266 268 274 268 272 271 274 273 268 269 272 264 261 259 259 260 260 260 260 260 260 261 261 262 262 263 263 263 263 264 264
282 282 282 282 281 283 283 283 281 276 266 263 262 264 259 261 260 259 258 258 262 264 265 266 269 272 270 266 271 266 270 273 269 259 258 260 260 260 260 260 260 260 260 260 260 261 261 262 262 262 262 262 263 263
282 281 281 281 280 281 282 280 275 262 262 263 263 252 256 257 259 259 260 262 265 264 270 270 276 273 269 268 267 261 267 262 256 257 258 260 260 260 260 259 260 259 259 260 260 261 261 262 262 262 261 261 262 262
278 278 280 282 282 281 277 274 266 265 264 259 264 260 256 255 260 259 261 262 264 266 269 272 269 268 266 269 267 261 260 258 257 259 261 260 260 259 259 259 259 259 259 259 260 260 261 261 261 260 260 260 261 261
278 278 280 282 282 279 267 267 267 265 260 255 255 255 254 255 256 259 258 259 261 260 264 266 267 264 264 260 260 257 258 258 259 260 259 260 259 259 258 258 258 258 258 258 258 259 259 260 260 259 259 259 259 260
280 280 279 280 281 275 267 263 267 265 263 261 254 256 254 256 252 249 250 253 257 258 261 261 260 256 258 258 257 257 258 257 254 254 257 259 259 258 258 257 257 257 257 259 259 259 260 260 260 259 259 259 259 259
281 279 280 280 275 269 259 257 260 257 256 260 252 254 258 252 252 253 252 252 257 255 260 254 253 253 256 257 257 257 257 257 254 253 253 252 258 257 258 259 257 258 257 257 257 259 260 260 260 260 260 260 260 260
279 278 278 276 269 265 260 260 260 257 259 256 256 252 254 258 254 254 252 258 256 256 253 253 250 249 250 253 257 257 257 257 256 256 256 256 253 256 258 259 257 257 258 259 258 259 260 260 260 260 260 260 260 261
278 277 273 269 268 265 262 261 260 256 264 262 255 261 259 255 254 255 260 252 254 254 256 255 256 256 256 256 256 257 257 256 255 257 258 257 258 258 258 260 259 257 258 261 260 259 260 261 261 261 261 261 261 261
274 264 260 259 261 262 255 259 255 257 256 258 258 263 260 253 253 259 264 254 254 251 251 255 255 252 254 254 253 260 262 259 258 259 259 258 257 262 262 262 262 262 261 261 262 263 263 263 262 262 261 260 260 260
269 260 258 260 253 260 259 259 258 262 260 251 259 261 258 248 260 261 264 261 251 248 247 252 252 253 251 247 256 262 262 262 261 259 263 262 262 262 263 264 264 264 264 264 264 263 263 262 262 261 260 259 259 259
264 252 258 251 256 262 255 263 258 258 251 258 256 250 246 255 264 268 262 258 254 253 251 253 254 248 249 255 256 261 265 264 262 259 263 264 263 262 261 258 257 263 264 264 263 262 262 262 261 260 260 260 259 257
267 262 249 245 247 248 251 246 245 251 257 263 256 255 257 266 265 266 258 258 257 267 269 269 266 263 264 266 266 265 265 264 264 264 263 263 262 262 261 260 259 264 264 263 262 261 260 260 260 260 259 259 259 258
253 249 263 252 250 243 255 249 253 258 257 248 252 262 264 266 269 263 262 267 269 270 270 269 268 268 268 267 266 265 265 264 263 262 263 264 265 266 266 266 266 265 264 264 263 262 261 260 260 259 258 258 259 259
252 243 248 256 250 249 253 259 258 252 248 250 259 260 261 257 259 262 266 267 267 266 266 267 267 267 266 266 265 265 264 263 260 255 255 258 262 269 269 267 266 264 263 262 262 261 261 260 260 259 259 259 258 258
252 240 252 249 258 262 256 247 248 241 242 242 241 245 249 250 260 264 264 263 263 265 267 268 267 266 266 265 266 266 266 265 264 263 260 262 266 268 267 266 265 264 262 262 262 262 261 261 260 260 260 259 258 257
244 245 252 251 257 251 243 240 240 240 239 237 237 241 247 246 252 261 260 260 261 262 262 263 264 265 265 265 264 264 264 269 269 269 268 268 268 267 266 265 264 264 264 263 262 261 261 260 259 259 258 258 258 257
248 251 255 262 261 246 241 244 247 248 244 243 245 238 243 245 251 258 263 262 255 256 258 261 262 265 268 269 269 269 269 269 269 269 268 268 268 267 267 266 265 264 263 262 262 261 260 259 259 258 258 257 257 257
246 246 247 251 256 258 250 249 253 255 253 249 250 247 247 250 258 260 264 263 263 262 264 265 267 267 268 269 270 271 271 270 269 269 268 268 268 268 267 266 265 263 262 262 261 260 260 259 258 258 258 257 257 256
Wind_Speed
22 26 21 26 29 25 38 42 45 42 37 34 32 29 26 25 21 24 17 12 10 4 4 4 3 5 4 4 5 4 4 0 2 4 4 4 3 5 2 5 9 11 8 8 11 10 18 5 6 21 13 6 4 6
31 34 27 38 43 42 45 51 47 44 42 38 33 27 24 20 16 29 12 26 27 8 4 12 18 14 8 4 6 3 4 4 5 4 1 2 2 3 5 7 3 7 7 7 11 8 0 4 3 9 10 6 6 7
39 43 39 37 43 46 41 43 43 40 37 32 28 22 19 17 12 20 18 13 15 4 4 4 5 7 7 7 5 4 1 3 4 3 3 3 6 3 4 7 4 2 6 4 1 2 7 10 10 11 17 12 11 6
47 48 48 45 47 47 45 42 36 31 28 26 21 21 18 12 20 25 19 13 11 4 4 2 4 5 4 4 7 8 5 4 3 1 2 4 3 4 3 2 2 3 6 5 6 5 9 2 15 17 19 15 12 9
43 44 44 44 46 44 41 40 38 34 31 30 29 26 24 25 27 32 32 23 14 4 4 2 1 4 3 3 4 4 5 2 2 2 2 3 2 1 2 4 3 6 5 2 1 9 7 9 16 22 19 17 14 10
41 42 42 42 40 40 36 34 34 34 33 30 25 24 26 22 17 7 4 19 18 8 4 3 1 3 5 1 3 3 5 1 0 2 2 1 4 2 0 3 5 10 9 9 6 17 16 20 21 14 17 14 14 12
40 40 40 39 38 37 36 34 31 28 26 27 32 28 19 17 16 9 4 5 8 6 3 3 1 2 1 1 1 1 4 2 2 1 0 3 5 5 3 2 12 11 14 15 9 16 6 11 11 19 17 15 12 11
38 37 35 33 31 30 30 30 29 29 26 26 27 25 23 23 18 16 21 15 7 11 4 4 1 3 5 2 2 1 2 2 2 2 3 3 3 3 3 9 12 13 16 6 16 15 12 14 14 16 20 15 9 10
32 32 31 29 27 25 25 24 21 19 17 16 15 12 7 12 6 7 8 9 22 11 3 3 2 2 4 1 0 2 1 2 2 3 2 2 3 4 4 11 12 13 11 14 17 13 11 11 14 13 13 15 10 11
32 32 32 29 26 23 21 17 16 13 12 12 9 8 4 6 7 6 4 4 6 4 5 3 3 1 2 2 2 2 1 2 2 2 3 3 2 3 5 7 8 11 11 11 11 9 16 14 13 13 12 10 10 8
32 31 30 29 29 29 28 19 8 8 8 7 3 2 4 8 6 4 4 5 4 5 4 2 1 3 4 3 1 1 1 1 2 1 2 2 2 3 8 8 8 11 12 10 8 8 9 8 9 8 9 12 13 14
30 28 27 26 25 24 24 24 22 20 10 8 11 7 6 7 4 7 1 4 6 1 4 2 3 3 4 2 2 3 2 3 1 1 3 1 1 5 7 9 9 12 13 12 10 9 11 11 13 11 9 12 13 14
27 25 24 22 21 20 19 18 17 13 7 7 6 5 4 5 9 5 2 4 3 4 4 4 3 3 4 2 1 3 5 0 2 4 1 0 2 5 7 7 8 12 13 12 12 14 14 13 16 14 12 16 15 17
21 21 21 20 20 17 16 13 11 8 9 5 5 8 5 5 3 2 3 3 3 2 4 3 3 1 2 4 1 4 2 3 4 2 3 1 3 6 6 7 6 8 12 12 12 13 12 13 11 14 16 17 16 17
8 14 17 19 14 14 18 13 13 12 9 4 5 4 3 2 1 1 1 2 2 2 2 3 2 1 3 3 2 2 5 2 2 2 1 1 3 3 5 6 6 6 9 10 11 12 13 13 11 12 17 18 17 17
6 3 19 18 14 10 9 12 19 8 7 4 7 3 2 3 3 3 2 2 2 3 2 1 1 3 3 2 5 2 4 3 2 2 2 1 1 1 4 7 9 10 10 10 11 12 10 11 11 10 13 17 17 16
9 6 16 13 12 14 6 7 8 6 5 5 2 1 2 2 3 2 1 2 6 2 1 1 3 2 1 3 2 2 3 2 3 2 2 2 3 4 8 9 10 11 11 11 11 12 12 10 11 14 13 16 14 14
13 16 12 4 3 11 11 11 6 5 6 2 3 3 0 1 1 2 2 2 3 2 3 2 1 4 2 4 2 2 1 2 1 1 1 1 3 5 8 9 11 11 11 10 10 9 10 11 9 10 11 13 11 14
18 18 12 12 8 6 5 8 9 4 1 1 2 2 1 2 3 3 3 5 1 1 0 2 4 1 2 2 2 2 1 1 1 1 2 4 3 3 9 8 8 10 12 11 11 10 9 8 6 9 11 11 10 12
12 17 21 19 7 7 6 4 6 4 2 2 1 2 1 2 2 1 2 2 1 2 5 3 2 3 2 2 2 2 1 3 2 1 2 2 4 6 10 9 9 11 12 7 9 7 8 7 5 10 11 11 12 14
9 16 17 11 10 16 7 2 4 2 1 2 2 1 2 2 3 3 3 3 3 2 1 3 3 3 4 3 4 4 5 7 3 3 3 2 3 13 11 5 7 11 7 12 12 11 8 8 11 11 11 11 11 13
10 13 9 13 9 7 5 9 3 1 2 1 2 1 3 3 3 3 3 3 1 2 3 3 2 2 1 3 6 9 8 7 9 11 12 12 6 5 7 11 15 12 14 13 11 11 12 12 12 12 13 14 16 18
7 8 9 14 6 7 2 6 4 6 4 4 2 4 3 3 2 7 2 2 3 4 5 6 4 6 5 5 7 10 11 13 14 14 14 14 15 15 16 13 10 11 17 17 10 15 17 14 12 13 15 18 21 24
8 9 6 5 5 1 2 5 2 3 3 4 4 4 4 3 6 3 1 3 3 1 3 5 8 2 2 5 4 7 10 12 11 11 11 12 13 10 7 11 13 14 15 17 17 13 11 11 12 15 17 20 22 24
7 10 5 6 3 5 6 6 6 5 2 2 3 3 3 3 3 2 2 3 2 2 3 8 10 8 3 2 6 8 9 10 10 9 8 9 12 14 14 12 15 16 12 12 11 10 12 14 16 19 21 22 23 26
7 5 4 3 3 3 2 2 1 1 1 3 3 2 2 2 2 4 3 3 3 4 6 9 8 3 4 17 7 5 9 11 12 9 10 10 10 11 11 11 14 19 10 8 11 15 18 21 23 24 26 26 25 25
4 2 1 1 2 3 2 2 1 2 0 2 2 3 3 2 4 4 3 6 3 9 12 16 19 20 13 7 12 13 10 8 10 9 11 14 17 18 19 21 20 15 12 14 16 18 21 23 24 25 27 28 26 24
2 1 1 1 2 1 3 1 2 3 3 2 2 1 5 7 5 3 5 3 12 7 11 13 13 14 14 13 10 9 9 11 13 17 20 22 21 17 16 17 15 12 14 15 16 18 20 21 23 23 24 25 28 26
2 1 1 1 1 1 4 5 4 3 1 3 4 3 4 3 3 4 3 7 11 14 13 15 17 18 18 18 18 18 17 15 11 2 5 4 8 9 6 8 9 10 13 16 17 18 19 19 21 21 22 23 26 26
1 1 3 1 2 4 3 3 2 2 2 2 3 5 4 6 13 18 22 22 19 21 23 21 18 17 19 20 20 19 19 21 23 23 7 7 12 9 10 12 15 17 17 18 19 19 17 16 17 18 19 21 22 22
1 1 1 1 3 2 1 2 2 2 2 1 1 2 4 5 14 16 22 30 29 23 20 21 21 21 21 20 20 16 16 18 20 20 21 22 21 20 20 18 17 17 17 18 18 17 17 18 18 20 21 22 23 22
1 1 0 3 3 1 1 2 1 2 1 1 2 1 3 3 4 5 3 4 12 20 26 24 22 26 24 24 22 20 18 17 17 15 15 17 18 18 18 17 17 17 17 16 15 16 16 18 19 20 20 21 22 23
1 0 1 2 3 3 2 2 1 3 2 2 3 3 3 3 6 4 7 7 11 8 11 13 14 14 12 9 9 10 11 13 13 14 14 15 15 16 17 17 16 14 14 14 15 15 17 17 18 18 18 20 22 24
Wind_Direction
66 64 102 112 92 104 119 117 114 117 118 123 121 110 100 103 108 113 57 74 111 93 52 31 51 120 89 98 127 183 87 277 102 162 149 210 171 225 144 220 181 185 185 207 224 236 253 193 145 192 233 300 294 297
67 59 107 109 107 94 103 107 108 108 111 115 121 121 105 105 108 95 76 69 82 75 96 84 73 60 53 72 118 182 153 153 174 170 161 137 201 204 174 238 241 223 206 202 197 216 12 58 84 343 327 298 333 314
75 65 77 118 112 113 101 102 104 104 105 108 110 108 95 93 92 115 92 70 68 91 46 40 27 50 67 65 81 128 254 190 159 143 161 199 241 137 187 227 212 235 18 236 5 342 349 29 6 360 328 319 320 316
75 74 75 81 86 92 103 107 110 107 105 108 111 119 123 115 118 113 79 57 80 103 102 86 65 54 68 73 68 70 89 76 72 77 175 217 234 205 238 290 273 347 333 351 273 7 324 119 23 347 333 325 341 347
74 76 78 79 85 87 85 91 99 105 105 104 100 110 111 113 112 94 76 56 62 106 119 105 99 44 33 79 103 108 111 128 141 186 190 219 220 236 99 93 47 345 0 298 310 0 313 291 326 336 334 334 345 2
74 77 78 79 79 79 82 85 89 93 97 95 85 95 105 113 108 87 56 35 41 83 99 91 17 36 8 147 158 185 168 139 206 189 223 185 64 324 254 69 39 358 336 322 292 319 302 280 282 340 324 334 0 23
71 72 74 76 77 77 78 77 82 90 91 86 82 80 83 76 78 62 89 326 18 55 87 95 54 293 25 32 107 88 127 153 187 227 73 50 20 26 37 141 349 338 322 309 321 332 340 357 325 326 329 342 8 35
65 68 67 67 68 71 73 76 81 86 87 80 78 78 77 77 80 51 35 38 66 93 64 105 106 38 21 3 84 208 143 159 72 86 56 46 36 43 79 335 336 336 326 307 339 328 294 313 337 346 342 350 27 33
61 61 62 61 58 59 63 64 72 79 75 63 57 60 68 39 45 349 6 42 56 64 102 70 90 222 355 313 282 11 122 92 56 68 51 57 12 56 330 329 329 334 333 312 318 307 347 349 351 355 359 357 15 21
55 54 58 57 56 56 57 56 56 64 60 37 34 37 33 4 353 355 20 25 21 355 20 74 333 329 344 355 335 73 20 139 79 50 107 66 106 132 18 336 320 322 325 328 341 345 342 343 344 345 359 358 360 1
48 52 55 56 54 52 48 44 50 46 31 36 47 67 352 15 41 31 42 49 337 37 12 333 331 311 333 47 297 353 189 350 81 323 95 30 51 16 353 336 332 330 323 317 315 309 323 319 327 339 353 2 6 13
45 47 50 50 50 49 48 50 53 69 62 72 106 86 27 30 30 75 0 342 42 118 331 329 310 340 300 319 69 333 104 34 154 0 69 62 47 1 344 335 332 333 335 327 341 342 350 357 357 349 359 4 11 19
40 42 45 46 44 42 41 38 41 54 62 52 46 48 21 325 44 57 0 345 25 349 0 344 316 351 324 317 17 50 68 170 97 44 174 346 9 1 344 332 331 337 341 341 352 6 8 12 19 17 11 19 30 39
39 40 38 42 40 39 38 38 32 27 51 62 42 26 51 359 51 176 186 203 265 353 335 309 276 339 303 17 1 79 263 60 53 51 273 317 7 350 339 329 327 337 344 346 349 358 4 15 13 24 33 36 37 36
26 35 38 32 34 39 37 38 51 65 54 62 45 50 60 245 307 276 256 10 301 256 329 335 296 300 344 54 28 74 34 22 181 214 247 301 327 335 324 324 330 340 343 346 349 354 2 9 11 23 34 41 46 48
42 32 25 11 15 29 37 48 54 62 60 69 44 56 329 60 328 358 355 307 297 329 295 214 284 55 25 103 48 160 112 209 221 201 233 258 302 325 327 326 334 339 346 348 355 359 5 12 13 25 42 41 37 42
59 48 360 19 35 45 61 70 52 48 83 50 31 32 130 141 207 253 240 271 321 304 16 327 53 194 53 59 40 199 192 206 208 263 280 348 344 344 338 336 346 347 351 358 358 8 12 19 33 35 27 20 28 31
39 14 4 29 27 43 50 41 77 71 67 355 86 273 294 181 313 313 302 335 331 354 330 62 85 48 114 141 240 215 192 236 192 154 309 337 337 343 346 340 343 345 348 353 360 3 10 12 23 22 14 13 19 19
45 34 40 60 57 72 61 32 33 89 133 261 328 359 212 250 245 315 335 324 303 335 11 41 67 123 193 206 171 218 211 164 125 338 292 280 281 319 342 341 346 347 346 344 348 349 349 354 0 2 359 2 4 5
42 47 52 57 69 73 60 19 24 84 89 251 64 1 237 224 284 341 321 3 47 60 42 49 197 211 192 222 192 160 151 161 121 5 281 245 250 302 329 330 329 332 329 338 351 348 351 360 351 351 352 354 348 345
30 34 34 48 55 60 84 358 49 97 173 87 281 41 289 11 27 9 328 342 66 67 82 215 212 234 205 203 201 211 215 197 199 187 209 281 259 309 307 306 314 325 322 322 321 327 333 329 335 339 340 344 341 338
22 26 39 36 67 59 78 22 106 253 72 219 24 30 28 13 331 324 294 55 63 234 192 183 219 179 210 242 225 225 227 222 233 240 245 257 277 289 293 309 316 311 316 316 306 304 319 332 335 340 342 344 341 337
43 38 52 26 69 42 314 359 62 0 55 332 7 31 359 343 255 325 52 220 251 221 198 202 214 216 229 249 241 237 233 231 235 241 248 252 263 273 278 292 298 294 310 327 329 324 324 334 339 337 337 334 334 332
53 50 42 43 30 28 346 19 37 28 39 26 24 357 343 298 325 38 154 262 247 209 215 217 192 162 239 257 256 240 223 224 238 255 259 261 275 300 309 312 315 311 307 306 310 318 325 331 328 327 328 326 327 326
64 356 36 3 353 43 30 5 351 33 29 340 12 344 331 352 14 354 242 270 265 237 212 184 195 218 194 265 271 243 225 224 227 256 285 266 273 289 298 308 314 321 308 294 300 306 313 316 318 318 320 321 323 322
67 322 55 209 306 80 194 37 16 295 154 341 242 270 12 66 36 255 235 223 225 204 189 193 189 183 248 227 231 229 235 229 230 245 276 277 267 262 283 303 315 319 333 314 301 302 307 313 315 316 316 320 322 321
58 329 354 60 112 117 70 51 82 92 90 221 264 5 41 24 258 251 270 219 203 220 214 215 208 205 220 232 241 240 242 238 234 262 278 282 282 280 275 272 276 296 302 301 297 296 299 304 307 310 312 315 315 317
126 137 141 260 59 10 140 81 159 219 230 202 92 286 185 198 237 233 210 215 201 198 199 207 218 227 234 237 240 237 235 244 252 266 276 283 282 275 272 270 273 284 288 294 298 297 296 297 298 301 303 305 311 316
69 313 119 31 353 217 217 194 220 231 181 142 166 243 242 233 262 251 242 225 217 214 212 212 219 221 228 235 241 245 248 244 225 234 263 266 298 298 273 266 275 286 294 296 297 296 299 297 298 300 301 299 303 307
255 208 106 122 184 237 230 165 220 253 237 252 292 300 276 268 265 267 258 247 233 227 231 233 233 222 229 231 244 246 246 243 239 231 220 238 262 288 286 289 293 299 299 297 298 301 300 295 298 303 307 312 317 319
105 19 0 195 255 260 257 313 275 265 273 284 233 217 270 304 301 276 257 250 246 242 239 235 233 232 231 233 234 243 258 252 250 253 258 267 275 281 287 293 294 293 292 294 297 298 302 305 309 311 312 314 318 320
100 114 41 296 293 20 7 343 290 279 236 303 258 247 290 306 274 278 289 244 208 219 229 230 233 242 245 249 254 256 257 263 269 270 273 277 285 293 296 296 295 294 294 294 295 299 303 305 306 309 311 313 318 319
47 190 242 296 303 315 349 343 327 308 225 265 255 204 232 238 260 296 300 289 255 268 255 251 250 249 249 252 253 254 253 258 261 265 275 282 289 293 294 294 295 293 291 292 295 300 302 305 305 309 312 313 316 320